Home > Weather > Sedona > Past weeks

Flag for USA Weather for the Past 2 Weeks in Sedona, Arizona, USA

Now
46 °F

Clear.


Feels Like: 40 °F
Forecast: 46 / 68 °F
Wind: 15 mph from Northeast

Location: Sedona Airport

Current Time: May 2, 2016 at 5:55:25 AM

Latest Report: May 2, 2016 at 5:15 AM


Visibility: 10 mi

Pressure: 30.12 "Hg (25.77 "Hg at 1282m altitude)

Humidity: 66%

Dew Point: 36 °F

Location of SedonaLocation

Historic Weather in Sedona — Graph

°F

Sedona Temperature Yesterday

Maximum temperature yesterday: 59 °F (at 3:15 PM)
Minimum temperature yesterday: 43 °F (at 3:35 AM)
Average temperature yesterday: 48 °F

High & Low Weather Summary for the Past Weeks

 TemperatureHumidityPressure
High84 °F (Apr 21, 1:35 PM)93% (Apr 30, 2:15 PM)30.22 "Hg (Apr 30, 2:15 PM)
Low41 °F (Apr 26, 4:15 AM)8% (Apr 21, 1:35 PM)29.68 "Hg (Apr 28, 2:15 AM)
Average58 °F36%29.97 "Hg
* Reported Apr 17 4:15 AM — May 2 4:55 AM, Sedona, Weather by CustomWeather, © 2016

Note: Actual official high and low records may vary slightly from our data, if they occured in-between our weather recording intervals... More about our weather records

Advertising

Sedona Weather History for the Previous 24 Hours

Scroll right to see more
 ConditionsComfort  
Time TempWeatherWind HumidityBarometerVisibility
4:55 AM
Mon, May 2
46 °FClear.14 mph66%30.11 "Hg10 mi
4:35 AM46 °FClear.10 mph66%30.11 "Hg10 mi
4:15 AM46 °FClear.15 mph66%30.11 "Hg10 mi
3:55 AM48 °FClear.15 mph62%30.11 "Hg10 mi
3:35 AM46 °FClear.15 mph66%30.11 "Hg10 mi
3:15 AM48 °FClear.14 mph62%30.11 "Hg10 mi
2:35 AM48 °FClear.16 mph62%30.10 "Hg10 mi
2:15 AM46 °FClear.16 mph66%30.10 "Hg10 mi
1:55 AM48 °FClear.14 mph62%30.10 "Hg10 mi
1:35 AM48 °FClear.13 mph66%30.10 "Hg10 mi
1:15 AM48 °FClear.14 mph66%30.11 "Hg10 mi
12:55 AM48 °FClear.12 mph66%30.11 "Hg10 mi
12:15 AM48 °FClear.13 mph66%30.12 "Hg10 mi
11:35 PM
Sun, May 1
48 °FClear.14 mph66%30.12 "Hg10 mi
11:15 PM48 °FClear.13 mph66%30.12 "Hg10 mi
10:15 PM50 °FClear.12 mph62%30.11 "Hg10 mi
9:55 PM50 °FClear.13 mph62%30.10 "Hg10 mi
9:35 PM50 °FClear.13 mph62%30.10 "Hg10 mi
9:15 PM50 °FClear.12 mph67%30.09 "Hg10 mi
8:55 PM50 °FClear.12 mph67%30.08 "Hg10 mi
8:15 PM52 °FOvercast.10 mph67%30.07 "Hg10 mi
7:55 PM52 °FPassing clouds.9 mph67%30.06 "Hg10 mi
7:15 PM52 °FMostly cloudy.8 mph77%30.06 "Hg10 mi
6:55 PM52 °FMore clouds than sun.3 mph72%30.04 "Hg10 mi
6:15 PM52 °FMore clouds than sun.7 mph72%30.03 "Hg10 mi
5:55 PM52 °FLight rain. Cloudy.6 mph82%30.02 "Hg10 mi
4:35 PM59 °FCloudy.9 mph48%30.00 "Hg10 mi
3:55 PM59 °FMostly cloudy.5 mph51%29.99 "Hg10 mi
3:15 PM59 °FMostly cloudy.3 mph51%29.99 "Hg10 mi
2:55 PM57 °FCloudy.No wind48%30.00 "Hg10 mi
2:15 PM57 °FMore clouds than sun.No wind55%30.00 "Hg10 mi
1:55 PM55 °FMostly cloudy.3 mph55%30.00 "Hg10 mi
1:35 PM55 °FMostly cloudy.No wind55%30.00 "Hg10 mi
1:15 PM54 °FMore clouds than sun.3 mph54%30.00 "Hg10 mi
12:55 PM54 °FCloudy.3 mph58%30.00 "Hg10 mi
12:35 PM54 °FPartly sunny.3 mph63%30.00 "Hg10 mi
12:15 PM55 °FScattered clouds.8 mph63%29.99 "Hg10 mi
11:55 AM54 °FBroken clouds.12 mph67%29.99 "Hg10 mi
11:15 AM48 °FDrizzle. Overcast.6 mph82%29.99 "Hg10 mi
10:55 AM46 °FLight rain. More clouds than sun.5 mph87%29.99 "Hg10 mi
10:35 AM45 °FLight rain. Mostly cloudy.5 mph93%29.99 "Hg10 mi
10:15 AM46 °FRain. Cloudy.3 mph87%29.99 "Hg10 mi
9:55 AM45 °FMore clouds than sun.No wind93%29.98 "Hg10 mi
9:35 AM45 °FDrizzle. More clouds than sun.No wind93%29.97 "Hg10 mi
9:15 AM45 °FLight rain. More clouds than sun.No wind93%29.96 "Hg10 mi
8:55 AM45 °FLight rain. More clouds than sun.No wind93%29.96 "Hg10 mi
8:35 AM45 °FLight rain. More clouds than sun.No wind93%29.95 "Hg10 mi
8:15 AM45 °FLight rain. Overcast.No wind93%29.95 "Hg10 mi
7:55 AM45 °FRain. Overcast.No wind93%29.93 "Hg10 mi
7:35 AM45 °FDrizzle. Overcast.No wind93%29.93 "Hg10 mi
7:15 AM45 °FDrizzle. Overcast.No wind87%29.92 "Hg10 mi
6:55 AM45 °FDrizzle. Overcast.3 mph87%29.91 "Hg10 mi
6:35 AM45 °FRain. Overcast.No wind81%29.89 "Hg10 mi
6:15 AM45 °FDrizzle. Overcast.6 mph76%29.88 "Hg10 mi
5:55 AM43 °FOvercast.7 mph81%29.87 "Hg10 mi
5:35 AM45 °FRain. Overcast.6 mph76%29.87 "Hg10 mi
5:15 AM45 °FMostly cloudy.5 mph76%29.86 "Hg10 mi
Weather by CustomWeather, © 2016

See weather overviewHow to use our weather pages